Hourly Data Report for September 22, 2017

All times are specified in Local Standard Time (LST). Add 1 hour to adjust for Daylight Saving Time where and when it is observed.

COMOX A
BRITISH COLUMBIA

49°43'00.000" N
124°54'00.000" W
25.60 m
1021830
71893
YQQ

Download Data

Hourly Data (September 2017)
Hourly Data Report for September 22, 2017
Temp Definition
°C
Dew Point Temp Definition
°C
Rel Hum Definition
%
Wind Dir Definition
10's deg

Wind Spd Definition
km/h
Visibility Definition
km
Stn Press Definition
kPa
Hmdx Definition


Wind Chill Definition


Weather Definition


TIME
00:00 10.1 5.6 74 32 7 32.2 101.38     Clear
01:00 9.7 5.3 74 29 7 32.2 101.42     Clear
02:00 8.6 4.9 78 29 7 32.2 101.42     Clear
03:00 8.1 4.8 80 27 4 32.2 101.44     Clear
04:00 8.2 4.6 78 27 4 32.2 101.45     Clear
05:00 8.0 4.5 79 28 6 32.2 101.48     Clear
06:00 9.0 4.7 74 27 6 32.2 101.48     Mainly Clear
07:00 8.3 5.2 81   0 32.2 101.53     Mainly Clear
08:00 12.7 5.8 63   0 32.2 101.54     Mainly Clear
09:00 13.7 7.1 64 36 15 32.2 101.56     Clear
10:00 15.0 6.5 57 36 13 32.2 101.53     Mostly Cloudy
11:00 15.6 5.6 51 1 13 32.2 101.52     Mainly Clear
12:00 15.9 6.2 52 35 11 32.2 101.48     Mostly Cloudy
13:00 17.4 4.8 43 36 11 32.2 101.42     Mostly Cloudy
14:00 18.6 4.1 38 36 11 32.2 101.38     Mostly Cloudy
15:00 18.4 4.9 41 2 9 32.2 101.32     Mostly Cloudy
16:00 19.1 5.0 39 4 9 32.2 101.30     Mainly Clear
17:00 18.5 6.4 45 31 4 32.2 101.28     Mostly Cloudy
18:00 17.5 7.2 51 32 4 32.2 101.28     Mostly Cloudy
19:00 16.9 7.0 52 35 11 32.2 101.25     Cloudy
20:00 16.2 7.0 54 34 17 32.2 101.28     Cloudy
21:00 15.2 8.1 63 35 4 32.2 101.30     Rain Showers
22:00 14.8 8.2 65 32 4 32.2 101.31     Rain Showers
23:00 14.8 7.8 63   0 32.2 101.32     Cloudy

Notes on Data Quality.

Legend

  • E = Estimated
  • M = Missing
  • NA = Not Available
  • ‡ = Partner data that is not subject to review by the National Climate Archives
Date modified: